Torna al catalogo

CZ-6A DEB

AttivoPO
NORAD 60635·DEBRIS·🇨🇳 China

Lanciato Aug 6, 2024 da Taiyuan Satellite Launch Center

Loading…

Prossimi Passaggi (prossime 24 ore)

TLE

AggiornatoSource: Space-Track

Epoca: Sep 14, 2026, 09:52 UTC

1 60635U 24140AL  26257.41179072  .00000439  00000-0  27002-3 0  9994
2 60635  88.7909 249.7219 0149492   2.8986 357.3022 13.98515509107207

Traccia CZ-6A DEB in tempo reale con AllMySat

Download on the App Store